This is the latest recevied weather packets stored in our database for station/object EA1PVC-10. If no packets are shown the sender has not sent any weather packets the latest 10 day(s).
| Time | Temp. | Humidity | Pressure | Rain* | Wind** | Luminosity | Snow |
|---|---|---|---|---|---|---|---|
| 1777520322 | 10° C | 100% | 921.3 hPa | - | - | - | - |
| 1777519422 | 10° C | 100% | 921.1 hPa | - | - | - | - |
| 1777518522 | 10° C | 100% | 921 hPa | - | - | - | - |
| 1777517621 | 10° C | 100% | 920.9 hPa | - | - | - | - |
| 1777516722 | 10° C | 100% | 920.8 hPa | - | - | - | - |
| 1777514910 | 10° C | 100% | 920.7 hPa | - | - | - | - |
| 1777514010 | 10° C | 100% | 920.6 hPa | - | - | - | - |
| 1777513110 | 10° C | 100% | 920.7 hPa | - | - | - | - |
| 1777512210 | 10° C | 100% | 920.6 hPa | - | - | - | - |
| 1777511310 | 10° C | 100% | 920.4 hPa | - | - | - | - |
| 1777510410 | 10° C | 100% | 920.5 hPa | - | - | - | - |
| 1777509509 | 8.33° C | 100% | 918.1 hPa | - | - | - | - |
| 1777508609 | 10° C | 100% | 920.2 hPa | - | - | - | - |
| 1777507710 | 9.44° C | 100% | 920.1 hPa | - | - | - | - |
| 1777506809 | 9.44° C | 100% | 919.8 hPa | - | - | - | - |
| 1777505909 | 10° C | 100% | 919.7 hPa | - | - | - | - |
| 1777505009 | 4.44° C | 100% | 912.1 hPa | - | - | - | - |
| 1777504098 | 10° C | 100% | 919.5 hPa | - | - | - | - |
| 1777503198 | 10° C | 100% | 919.4 hPa | - | - | - | - |
| 1777502297 | 10.56° C | 100% | 919.3 hPa | - | - | - | - |
| 1777501397 | 10.56° C | 100% | 919.1 hPa | - | - | - | - |
| 1777500498 | 10.56° C | 100% | 919.1 hPa | - | - | - | - |
| 1777499598 | 10° C | 100% | 919.1 hPa | - | - | - | - |
| 1777498697 | 10° C | 100% | 918.8 hPa | - | - | - | - |
| 1777497797 | 10° C | 100% | 918.7 hPa | - | - | - | - |
* Rain since midnight (hover to see other rain measurements)
** Current wind speed in m/s (hover to see current wind gust speed)